Nautica Digitale Olympic - Sochi 2014
  Sponsor: MARINA DEL NETTUNO 

OBSERVATIONS
LATEST DOWNLOAD: 2014/04/20 15:16:06

STATION LIRP/161580
Sunday, 20 April 2014, 12:45 UTC

pressure 1006 hPa
temperature 18 °C
dewpoint 11 °C
humidity 63.6%
wind SSW-8 knots
visibility Good
sky Scattered clouds
weather -

MAIN LOCATIONS

HOURLY DATA

HOTEL RESERVATION

WEATHER REPORT WEATHER REPORT

METEOMAR METEOMAR

WEATHER CHARTS WEATHER CHARTS

WEBCAM WEBCAM



 PISA
COUNTRY
ITALY
     LAT
43.68 N
    LON
10.38 E
    ELEV
1 m
     REGION
Toscana
     PROVINCE
Pisa
     ZONE
Central

LATEST 24 HOURS ( 49 OBSERVATIONS )
Observation time
UTC
temperature
C
humidity
%
pressure
hPa
  wind
knots
2014/04/20 12:4518 631006SSW-8
2014/04/20 12:1518 591006S-5
2014/04/20 11:4517 631006ESE-7
2014/04/20 11:1517 631006E-9
2014/04/20 10:4516 721006ESE-9
2014/04/20 10:1516 721006ESE-9
2014/04/20 09:4515 771006ESE-8
2014/04/20 09:1514 821006E-10
2014/04/20 08:4513 871006E-8
2014/04/20 08:1512 931006ESE-5
2014/04/20 07:4511 931006E-6
2014/04/20 07:1510 931006E-8
2014/04/20 06:459 931006ESE-6
2014/04/20 06:158 931006ESE-5
2014/04/20 05:458 931005SE-4
2014/04/20 05:156 1001005ESE-5
2014/04/20 04:456 931005VAR-2
2014/04/20 04:156 1001005E-5
2014/04/20 03:457 931005ENE-5
2014/04/20 03:157 931005E-2
2014/04/20 02:457 931005VAR-2
2014/04/20 02:157 931005SSE-4
2014/04/20 01:457 1001005ESE-3
2014/04/20 01:157 1001005NNE-1
2014/04/20 00:457 1001005S-3
2014/04/20 00:158 1001005VAR-2
2014/04/19 23:4510 931005NNE-3
2014/04/19 23:158 1001005E-2
2014/04/19 22:459 931005E-2
2014/04/19 22:1510 931005VAR-2
2014/04/19 21:4511 931005VAR-2
2014/04/19 21:1511 931005VAR-2
2014/04/19 20:4511 931005VAR-1
2014/04/19 20:1511 931005S-2
2014/04/19 19:4511 931004SSE-3
2014/04/19 19:1511 931004SSW-4
2014/04/19 18:4512 931004VAR-2
2014/04/19 18:1512 931003VAR-2
2014/04/19 17:4512 931003ESE-5
2014/04/19 17:1513 871002ENE-9
2014/04/19 16:4514 821002ENE-8
2014/04/19 16:1515 821002E-9
2014/04/19 15:4515 821002ENE-9
2014/04/19 15:1515 771002ENE-13
2014/04/19 14:4515 771002E-12
2014/04/19 14:1515 821002E-13
2014/04/19 13:4513 871002E-11
2014/04/19 13:1512 931002E-11
2014/04/19 12:4512 931002E-14
( Previous data )

ARCHIVE   LOCAL FORECASTS   CLIMATE AVERAGES